Time,TemperatureF,DewpointF,PressureIn,WindDirection,WindDirectionDegrees,WindSpeedMPH,WindSpeedGustMPH,Humidity,HourlyPrecipIn,Conditions,Clouds,dailyrainin,SoftwareType,DateUTC
2013-04-05 00:03:00,43.0,24.0,30.28,SW,235,1.0,3.0,47,0.00,,,0.00,,2013-04-05 04:03:00,
2013-04-05 00:13:00,43.0,24.0,30.28,SW,235,1.0,3.0,47,0.00,,,0.00,,2013-04-05 04:13:00,
2013-04-05 00:23:00,43.0,25.0,30.28,SW,232,2.0,6.0,48,0.00,,,0.00,,2013-04-05 04:23:00,
2013-04-05 00:33:00,42.0,24.0,30.28,WSW,253,2.0,5.0,49,0.00,,,0.00,,2013-04-05 04:33:00,
2013-04-05 00:42:00,42.0,24.0,30.28,WSW,253,2.0,5.0,49,0.00,,,0.00,,2013-04-05 04:42:00,
2013-04-05 00:52:00,42.0,25.0,30.28,WSW,238,2.0,6.0,51,0.00,,,0.00,,2013-04-05 04:52:00,
2013-04-05 01:02:00,42.0,26.0,30.28,West,281,0.0,3.0,52,0.00,,,0.00,,2013-04-05 05:02:00,
2013-04-05 01:13:00,42.0,26.0,30.28,West,281,0.0,3.0,52,0.00,,,0.00,,2013-04-05 05:13:00,
2013-04-05 01:22:00,41.0,26.0,30.28,West,262,1.0,3.0,55,0.00,,,0.00,,2013-04-05 05:22:00,
2013-04-05 01:32:00,41.0,26.0,30.27,WSW,242,1.0,3.0,55,0.00,,,0.00,,2013-04-05 05:32:00,
2013-04-05 01:42:00,41.0,26.0,30.27,WSW,242,1.0,3.0,55,0.00,,,0.00,,2013-04-05 05:42:00,
2013-04-05 01:53:00,41.0,27.0,30.26,WSW,256,2.0,6.0,58,0.00,,,0.00,,2013-04-05 05:53:00,
2013-04-05 02:02:00,41.0,28.0,30.25,East,101,2.0,8.0,59,0.00,,,0.00,,2013-04-05 06:02:00,
2013-04-05 02:12:00,41.0,28.0,30.25,East,101,2.0,8.0,59,0.00,,,0.00,,2013-04-05 06:12:00,
2013-04-05 02:22:00,40.0,28.0,30.25,West,275,1.0,5.0,61,0.00,,,0.00,,2013-04-05 06:22:00,
2013-04-05 02:32:00,40.0,28.0,30.25,West,259,1.0,5.0,62,0.00,,,0.00,,2013-04-05 06:32:00,
2013-04-05 02:42:00,40.0,28.0,30.25,West,259,1.0,5.0,62,0.00,,,0.00,,2013-04-05 06:42:00,
2013-04-05 02:52:00,39.0,28.0,30.24,South,191,1.0,5.0,65,0.00,,,0.00,,2013-04-05 06:52:00,
2013-04-05 03:03:00,39.0,29.0,30.24,SW,224,1.0,5.0,66,0.00,,,0.00,,2013-04-05 07:03:00,
2013-04-05 03:12:00,39.0,29.0,30.24,SW,224,1.0,5.0,66,0.00,,,0.00,,2013-04-05 07:12:00,
2013-04-05 03:22:00,39.0,29.0,30.23,SSE,165,1.0,5.0,68,0.00,,,0.00,,2013-04-05 07:22:00,
2013-04-05 03:32:00,39.0,30.0,30.23,SE,138,1.0,5.0,69,0.00,,,0.00,,2013-04-05 07:32:00,
2013-04-05 03:42:00,39.0,30.0,30.23,SE,138,1.0,5.0,69,0.00,,,0.00,,2013-04-05 07:42:00,
2013-04-05 03:53:00,39.0,30.0,30.22,WSW,253,2.0,3.0,71,0.00,,,0.00,,2013-04-05 07:53:00,
2013-04-05 04:02:00,38.0,29.0,30.22,NNE,19,1.0,5.0,71,0.00,,,0.00,,2013-04-05 08:02:00,
2013-04-05 04:13:00,38.0,29.0,30.22,NNE,19,1.0,5.0,71,0.00,,,0.00,,2013-04-05 08:13:00,
2013-04-05 04:22:00,38.0,30.0,30.21,SW,222,1.0,5.0,72,0.00,,,0.00,,2013-04-05 08:22:00,
2013-04-05 04:32:00,38.0,30.0,30.21,SW,231,1.0,5.0,72,0.00,,,0.00,,2013-04-05 08:32:00,
2013-04-05 04:43:00,38.0,30.0,30.21,SW,231,1.0,5.0,72,0.00,,,0.00,,2013-04-05 08:43:00,
2013-04-05 04:52:00,38.0,30.0,30.20,WNW,294,1.0,7.0,72,0.00,,,0.00,,2013-04-05 08:52:00,
2013-04-05 05:02:00,38.0,29.0,30.20,West,264,1.0,3.0,71,0.00,,,0.00,,2013-04-05 09:02:00,
2013-04-05 05:12:00,38.0,29.0,30.20,West,264,1.0,3.0,71,0.00,,,0.00,,2013-04-05 09:12:00,
2013-04-05 05:22:00,38.0,29.0,30.20,WNW,287,1.0,7.0,71,0.00,,,0.00,,2013-04-05 09:22:00,
2013-04-05 05:33:00,38.0,29.0,30.19,West,270,1.0,8.0,71,0.00,,,0.00,,2013-04-05 09:33:00,
2013-04-05 05:43:00,38.0,29.0,30.19,West,270,1.0,8.0,71,0.00,,,0.00,,2013-04-05 09:43:00,
2013-04-05 05:53:00,38.0,29.0,30.19,WSW,238,0.0,3.0,71,0.00,,,0.00,,2013-04-05 09:53:00,
2013-04-05 06:03:00,38.0,30.0,30.19,WSW,252,0.0,3.0,72,0.00,,,0.00,,2013-04-05 10:03:00,
2013-04-05 06:13:00,38.0,30.0,30.19,WSW,252,0.0,3.0,72,0.00,,,0.00,,2013-04-05 10:13:00,
2013-04-05 06:23:00,38.0,30.0,30.18,West,261,0.0,2.0,72,0.00,,,0.00,,2013-04-05 10:23:00,
2013-04-05 06:33:00,37.0,29.0,30.18,SW,232,0.0,3.0,72,0.00,,,0.00,,2013-04-05 10:33:00,
2013-04-05 06:43:00,37.0,29.0,30.18,SW,232,0.0,3.0,72,0.00,,,0.00,,2013-04-05 10:43:00,
2013-04-05 06:53:00,37.0,29.0,30.18,WSW,240,0.0,1.0,72,0.00,,,0.00,,2013-04-05 10:53:00,
2013-04-05 07:03:00,37.0,29.0,30.18,WSW,252,0.0,2.0,72,0.00,,,0.00,,2013-04-05 11:03:00,
2013-04-05 07:13:00,37.0,29.0,30.18,WSW,252,0.0,2.0,72,0.00,,,0.00,,2013-04-05 11:13:00,
2013-04-05 07:22:00,38.0,30.0,30.19,West,266,0.0,3.0,72,0.00,,,0.00,,2013-04-05 11:22:00,
2013-04-05 07:33:00,38.0,29.0,30.19,WSW,255,1.0,2.0,71,0.00,,,0.00,,2013-04-05 11:33:00,
2013-04-05 07:42:00,38.0,29.0,30.19,WSW,255,1.0,2.0,71,0.00,,,0.00,,2013-04-05 11:42:00,
2013-04-05 07:52:00,38.0,29.0,30.19,West,266,1.0,3.0,70,0.00,,,0.00,,2013-04-05 11:52:00,
2013-04-05 08:02:00,39.0,30.0,30.18,WSW,253,0.0,5.0,69,0.00,,,0.00,,2013-04-05 12:02:00,
2013-04-05 08:12:00,39.0,30.0,30.18,WSW,253,0.0,5.0,69,0.00,,,0.00,,2013-04-05 12:12:00,
2013-04-05 08:22:00,39.0,29.0,30.18,West,276,1.0,3.0,68,0.00,,,0.00,,2013-04-05 12:22:00,
2013-04-05 08:32:00,40.0,30.0,30.17,WSW,246,1.0,3.0,66,0.00,,,0.00,,2013-04-05 12:32:00,
2013-04-05 08:42:00,40.0,30.0,30.17,WSW,246,1.0,3.0,66,0.00,,,0.00,,2013-04-05 12:42:00,
2013-04-05 08:52:00,41.0,30.0,30.16,WSW,245,2.0,5.0,64,0.00,,,0.00,,2013-04-05 12:52:00,
2013-04-05 09:02:00,42.0,30.0,30.16,WSW,248,2.0,5.0,62,0.00,,,0.00,,2013-04-05 13:02:00,
2013-04-05 09:12:00,42.0,30.0,30.16,WSW,248,2.0,5.0,62,0.00,,,0.00,,2013-04-05 13:12:00,
2013-04-05 09:23:00,42.0,29.0,30.15,WSW,243,1.0,3.0,59,0.00,,,0.00,,2013-04-05 13:23:00,
2013-04-05 09:32:00,43.0,30.0,30.15,West,260,1.0,3.0,59,0.00,,,0.00,,2013-04-05 13:32:00,
2013-04-05 09:42:00,43.0,30.0,30.15,West,260,1.0,3.0,59,0.00,,,0.00,,2013-04-05 13:42:00,
2013-04-05 09:52:00,44.0,28.0,30.14,WSW,250,2.0,5.0,54,0.00,,,0.00,,2013-04-05 13:52:00,
2013-04-05 10:03:00,45.0,28.0,30.13,West,273,2.0,5.0,52,0.00,,,0.00,,2013-04-05 14:03:00,
2013-04-05 10:12:00,45.0,28.0,30.13,West,273,2.0,5.0,52,0.00,,,0.00,,2013-04-05 14:12:00,
2013-04-05 10:23:00,46.0,28.0,30.13,West,277,2.0,5.0,50,0.00,,,0.00,,2013-04-05 14:23:00,
2013-04-05 10:37:00,47.0,28.0,30.12,ESE,111,2.0,7.0,47,0.00,,,0.00,,2013-04-05 14:37:00,
2013-04-05 10:43:00,47.0,28.0,30.12,ESE,111,2.0,7.0,47,0.00,,,0.00,,2013-04-05 14:43:00,
2013-04-05 10:54:00,46.0,27.0,30.11,WSW,245,1.0,3.0,48,0.00,,,0.00,,2013-04-05 14:54:00,
2013-04-05 11:02:00,47.0,29.0,30.11,West,275,1.0,7.0,49,0.00,,,0.00,,2013-04-05 15:02:00,
2013-04-05 11:13:00,47.0,29.0,30.11,West,275,1.0,7.0,49,0.00,,,0.00,,2013-04-05 15:13:00,
2013-04-05 11:23:00,47.0,28.0,30.09,West,259,1.0,5.0,47,0.00,,,0.00,,2013-04-05 15:23:00,
2013-04-05 11:33:00,47.0,27.0,30.09,West,268,1.0,3.0,46,0.00,,,0.00,,2013-04-05 15:33:00,
2013-04-05 11:43:00,47.0,27.0,30.09,West,268,1.0,3.0,46,0.00,,,0.00,,2013-04-05 15:43:00,
2013-04-05 12:03:00,50.0,28.0,30.08,West,259,1.0,3.0,43,0.00,,,0.00,,2013-04-05 16:03:00,
2013-04-05 12:14:00,50.0,28.0,30.08,West,259,1.0,3.0,43,0.00,,,0.00,,2013-04-05 16:14:00,
2013-04-05 12:23:00,51.0,30.0,30.07,West,278,1.0,6.0,44,0.00,,,0.00,,2013-04-05 16:23:00,
2013-04-05 12:33:00,50.0,28.0,30.06,East,101,1.0,5.0,43,0.00,,,0.00,,2013-04-05 16:33:00,
2013-04-05 12:42:00,50.0,28.0,30.06,East,101,1.0,5.0,43,0.00,,,0.00,,2013-04-05 16:42:00,
2013-04-05 12:53:00,51.0,30.0,30.04,West,273,2.0,3.0,44,0.00,,,0.00,,2013-04-05 16:53:00,
2013-04-05 13:03:00,51.0,28.0,30.03,NW,305,2.0,5.0,40,0.00,,,0.00,,2013-04-05 17:03:00,
2013-04-05 13:13:00,51.0,28.0,30.03,NW,305,2.0,5.0,40,0.00,,,0.00,,2013-04-05 17:13:00,
2013-04-05 13:23:00,53.0,31.0,30.01,WSW,240,1.0,5.0,42,0.00,,,0.00,,2013-04-05 17:23:00,
2013-04-05 13:32:00,55.0,30.0,30.00,West,263,2.0,6.0,38,0.00,,,0.00,,2013-04-05 17:32:00,
2013-04-05 13:45:00,55.0,30.0,30.00,West,263,2.0,6.0,38,0.00,,,0.00,,2013-04-05 17:45:00,
2013-04-05 13:53:00,55.0,28.0,29.98,West,278,1.0,5.0,35,0.00,,,0.00,,2013-04-05 17:53:00,
2013-04-05 14:02:00,56.0,30.0,29.98,SSW,199,2.0,6.0,37,0.00,,,0.00,,2013-04-05 18:02:00,
2013-04-05 14:13:00,56.0,30.0,29.98,SSW,199,2.0,6.0,37,0.00,,,0.00,,2013-04-05 18:13:00,
2013-04-05 14:23:00,56.0,29.0,29.96,WSW,251,2.0,5.0,36,0.00,,,0.00,,2013-04-05 18:23:00,
2013-04-05 14:33:00,57.0,30.0,29.95,West,281,2.0,3.0,35,0.00,,,0.00,,2013-04-05 18:33:00,
2013-04-05 14:43:00,57.0,30.0,29.95,West,281,2.0,3.0,35,0.00,,,0.00,,2013-04-05 18:43:00,
2013-04-05 14:53:00,58.0,28.0,29.93,West,280,1.0,3.0,31,0.00,,,0.00,,2013-04-05 18:53:00,
2013-04-05 15:02:00,59.0,28.0,29.93,West,262,2.0,5.0,30,0.00,,,0.00,,2013-04-05 19:02:00,
2013-04-05 15:13:00,59.0,28.0,29.93,West,262,2.0,5.0,30,0.00,,,0.00,,2013-04-05 19:13:00,
2013-04-05 15:23:00,60.0,28.0,29.91,West,262,1.0,5.0,30,0.00,,,0.00,,2013-04-05 19:23:00,
2013-04-05 15:33:00,60.0,28.0,29.91,West,262,1.0,5.0,30,0.00,,,0.00,,2013-04-05 19:33:00,
2013-04-05 15:42:00,60.0,28.0,29.91,West,262,1.0,5.0,30,0.00,,,0.00,,2013-04-05 19:42:00,
2013-04-05 15:53:00,60.0,28.0,29.91,West,262,1.0,5.0,30,0.00,,,0.00,,2013-04-05 19:53:00,
2013-04-05 16:02:00,60.0,28.0,29.91,West,262,1.0,5.0,30,0.00,,,0.00,,2013-04-05 20:02:00,
2013-04-05 16:22:00,61.0,24.0,29.89,West,276,2.0,3.0,24,0.00,,,0.00,,2013-04-05 20:22:00,
2013-04-05 16:33:00,61.0,24.0,29.89,West,276,2.0,3.0,24,0.00,,,0.00,,2013-04-05 20:33:00,
2013-04-05 16:42:00,61.0,24.0,29.89,West,276,2.0,3.0,24,0.00,,,0.00,,2013-04-05 20:42:00,
2013-04-05 16:52:00,59.0,25.0,29.89,West,259,2.0,6.0,27,0.00,,,0.00,,2013-04-05 20:52:00,
2013-04-05 17:03:00,59.0,24.0,29.88,ENE,58,2.0,5.0,26,0.00,,,0.00,,2013-04-05 21:03:00,
2013-04-05 17:13:00,59.0,24.0,29.88,ENE,58,2.0,5.0,26,0.00,,,0.00,,2013-04-05 21:13:00,
2013-04-05 17:24:00,59.0,24.0,29.90,WSW,253,2.0,5.0,26,0.00,,,0.00,,2013-04-05 21:24:00,
2013-04-05 17:33:00,58.0,26.0,29.90,WSW,257,2.0,6.0,29,0.00,,,0.00,,2013-04-05 21:33:00,
2013-04-05 17:43:00,58.0,26.0,29.90,WSW,257,2.0,6.0,29,0.00,,,0.00,,2013-04-05 21:43:00,
2013-04-05 17:55:00,57.0,27.0,29.91,West,274,2.0,5.0,31,0.00,,,0.00,,2013-04-05 21:55:00,
2013-04-05 18:03:00,56.0,27.0,29.92,WNW,283,2.0,7.0,32,0.00,,,0.00,,2013-04-05 22:03:00,
2013-04-05 18:13:00,56.0,27.0,29.92,WNW,283,2.0,7.0,32,0.00,,,0.00,,2013-04-05 22:13:00,
2013-04-05 18:23:00,55.0,23.0,29.93,WNW,294,2.0,5.0,29,0.00,,,0.00,,2013-04-05 22:23:00,
2013-04-05 18:33:00,54.0,23.0,29.93,West,277,1.0,7.0,30,0.00,,,0.00,,2013-04-05 22:33:00,
2013-04-05 18:43:00,54.0,23.0,29.93,West,277,1.0,7.0,30,0.00,,,0.00,,2013-04-05 22:43:00,
2013-04-05 18:53:00,53.0,22.0,29.94,West,274,1.0,3.0,30,0.00,,,0.00,,2013-04-05 22:53:00,
2013-04-05 19:03:00,53.0,24.0,29.95,West,269,0.0,2.0,32,0.00,,,0.00,,2013-04-05 23:03:00,
2013-04-05 19:12:00,53.0,24.0,29.95,West,269,0.0,2.0,32,0.00,,,0.00,,2013-04-05 23:12:00,
2013-04-05 19:23:00,51.0,23.0,29.96,NW,306,0.0,3.0,33,0.00,,,0.00,,2013-04-05 23:23:00,
2013-04-05 19:33:00,51.0,26.0,29.97,NNW,328,1.0,3.0,37,0.00,,,0.00,,2013-04-05 23:33:00,
2013-04-05 19:42:00,51.0,26.0,29.97,NNW,328,1.0,3.0,37,0.00,,,0.00,,2013-04-05 23:42:00,
2013-04-05 19:53:00,49.0,27.0,29.99,West,277,1.0,3.0,42,0.00,,,0.00,,2013-04-05 23:53:00,
2013-04-05 20:02:00,49.0,27.0,30.00,West,277,1.0,3.0,42,0.00,,,0.00,,2013-04-06 00:02:00,
2013-04-05 20:13:00,49.0,27.0,30.00,West,277,1.0,3.0,42,0.00,,,0.00,,2013-04-06 00:13:00,
2013-04-05 20:23:00,48.0,27.0,30.01,WNW,291,1.0,5.0,43,0.00,,,0.00,,2013-04-06 00:23:00,
2013-04-05 20:33:00,47.0,26.0,30.01,WNW,300,2.0,5.0,43,0.00,,,0.00,,2013-04-06 00:33:00,
2013-04-05 20:42:00,47.0,26.0,30.01,WNW,300,2.0,5.0,43,0.00,,,0.00,,2013-04-06 00:42:00,
2013-04-05 20:52:00,46.0,25.0,30.03,NW,304,2.0,3.0,44,0.00,,,0.00,,2013-04-06 00:52:00,
2013-04-05 21:02:00,46.0,25.0,30.04,WNW,285,2.0,6.0,44,0.00,,,0.00,,2013-04-06 01:02:00,
2013-04-05 21:13:00,46.0,25.0,30.04,WNW,285,2.0,6.0,44,0.00,,,0.00,,2013-04-06 01:13:00,
2013-04-05 21:23:00,45.0,27.0,30.06,West,262,2.0,10.0,49,0.00,,,0.00,,2013-04-06 01:23:00,
2013-04-05 21:33:00,44.0,27.0,30.06,West,274,2.0,12.0,51,0.00,,,0.00,,2013-04-06 01:33:00,
2013-04-05 21:43:00,44.0,27.0,30.06,West,274,2.0,12.0,51,0.00,,,0.00,,2013-04-06 01:43:00,
2013-04-05 21:53:00,43.0,28.0,30.08,WNW,284,0.0,3.0,54,0.00,,,0.00,,2013-04-06 01:53:00,
2013-04-05 22:02:00,42.0,27.0,30.09,West,271,1.0,3.0,55,0.00,,,0.00,,2013-04-06 02:02:00,
2013-04-05 22:12:00,42.0,27.0,30.09,West,271,1.0,3.0,55,0.00,,,0.00,,2013-04-06 02:12:00,
2013-04-05 22:23:00,41.0,26.0,30.10,West,276,2.0,12.0,55,0.00,,,0.00,,2013-04-06 02:23:00,
2013-04-05 22:32:00,41.0,27.0,30.10,WSW,257,1.0,6.0,56,0.00,,,0.00,,2013-04-06 02:32:00,
2013-04-05 22:42:00,41.0,27.0,30.10,WSW,257,1.0,6.0,56,0.00,,,0.00,,2013-04-06 02:42:00,
2013-04-05 22:53:00,40.0,24.0,30.10,WNW,299,1.0,3.0,53,0.00,,,0.00,,2013-04-06 02:53:00,
2013-04-05 23:03:00,40.0,25.0,30.11,WNW,297,2.0,5.0,54,0.00,,,0.00,,2013-04-06 03:03:00,
2013-04-05 23:13:00,40.0,25.0,30.11,WNW,297,2.0,5.0,54,0.00,,,0.00,,2013-04-06 03:13:00,
2013-04-05 23:23:00,39.0,24.0,30.11,West,269,0.0,3.0,55,0.00,,,0.00,,2013-04-06 03:23:00,
2013-04-05 23:34:00,38.0,24.0,30.12,East,88,0.0,1.0,57,0.00,,,0.00,,2013-04-06 03:34:00,
2013-04-05 23:43:00,38.0,24.0,30.12,East,88,0.0,1.0,57,0.00,,,0.00,,2013-04-06 03:43:00,
2013-04-05 23:55:00,38.0,23.0,30.12,East,84,1.0,3.0,54,0.00,,,0.00,,2013-04-06 03:55:00,